Regional Weather Roundup
Issued by NWS Northern Indiana

Home | Current Version | Previous Version | Text Only | Print | Product List | Glossary Off
Versions: 1 2 3 4 5 6 7 8 9 10 11 12 13 14 15 16 17 18 19 20 21 22 23 24 25 26 27 28 29 30 31 32 33 34 35 36 37 38 39 40 41 42 43 44 45 46 47 48 49 50

000
ASUS43 KIWX 251700
RWRIWX

KIWX WEATHER ROUNDUP
NATIONAL WEATHER SERVICE NORTHERN INDIANA
1200 PM EST SAT FEB 25 2017

NOTE: "FAIR" INDICATES FEW OR NO CLOUDS BELOW 12,000 FEET WITH NO
SIGNIFICANT WEATHER AND/OR OBSTRUCTIONS TO VISIBILITY.

* THESE STATIONS ARE NOT UNDER NWS QUALITY CONTROL. THEY ALSO MAY NOT
  REPORT WEATHER SUCH AS PRECIPITATION OR FOG.

INZ001>027-251800-
NORTHERN INDIANA

CITY           SKY/WX    TMP DP  RH WIND       PRES   REMARKS
GARY*          FLURRIES  25  14  63 W21       29.86R WCI  10
MICHIGAN CITY* LGT SNOW  25  18  74 W12G21    29.83R WCI  14
KNOX*          CLOUDY    27   0  31 W21G26    29.83R WCI  13
SOUTH BEND     LGT SNOW  23  17  78 W15G26    29.80R WCI  10
GOSHEN         CLOUDY    27  17  66 W20       29.77R WCI  13
ANGOLA*        CLOUDY    27  19  74 W15       29.72R WCI  15
FORT WAYNE     FLURRIES  29  19  66 W29G36    29.76R WCI  14
PERU/GRISSOM   MIX PCPN  26  18  73 W21G28    29.82R WCI  12

$$
INZ028>050-251800-
CENTRAL INDIANA

CITY           SKY/WX    TMP DP  RH WIND       PRES   REMARKS
LAFAYETTE      LGT SNOW  25  19  78 W21G30    29.89R WCI  11
KOKOMO*        FLURRIES  26  18  71 W30G36    29.85R WCI  10
MUNCIE*        CLOUDY    30  19  63 W18G33    29.82R WCI  18
INDIANAPOLIS   LGT SNOW  27  19  72 W22G33    29.90R WCI  13

$$
MIZ043>046-050>051-056>058-064>065-071>073-077>080-251800-
SOUTHWEST LOWER MICHIGAN

CITY           SKY/WX    TMP DP  RH WIND       PRES   REMARKS
BATTLE CREEK   FLURRIES  27  21  78 W21G28    29.69R WCI  13
BENTON HARBOR  FLURRIES  26  17  68 W20G26    29.78R WCI  12
COLDWATER*     LGT SNOW  28  21  76 W18G30    29.71R WCI  15
HILLSDALE*     LGT SNOW  28  19  69 W20G29    29.67R WCI  15
HOLLAND        LGT SNOW  26  19  74 W16G26    29.72R WCI  14
GRAND RAPIDS   LGT SNOW  27  20  75 W20G26    29.67R WCI  13
KALAMAZOO      LGT SNOW  27  19  72 W15       29.72R WCI  15
STURGIS*       FLURRIES  26  20  77 W14G21    29.73R WCI  15
THREE RIVERS*  FLURRIES  26  19  75 W22G28    29.74R WCI  12

$$
OHZ001>008-015>018-024>025-251800-
NORTHWEST OHIO

CITY           SKY/WX    TMP DP  RH WIND       PRES   REMARKS
DEFIANCE       CLOUDY    30  23  75 W12G23    29.73R WCI  20
FINDLAY        CLOUDY    35  25  66 W26G33    29.70R WCI  22
TOLEDO EXPRESS FLURRIES  32  26  78 W18G30    29.68R WCI  20
TOLEDO METCALF CLOUDY    37  25  61 SW28G36   29.68R
LIMA           CLOUDY    32  27  81 W28G37    29.74R WCI  18

$$
AND FOR LAKE MICHIGAN COASTAL AND OPEN LAKE BUOY OBSERVATIONS

STATION/POSITION TEMP    WIND        PRES    VSBY  WAVE
                 AIR SEA DIR/SP/G                  HT/PER
                 (F)     (DEG/KT/KT) (MB)    (MI)  (FT/S)
CALUMET HARBOR    23     260/  9/ 19 1009.9R
MICHIGAN CITY     23     250/ 23/ 28   N/A
BURNS HARBOR      25     280/ 19/ 24 1010.5R
SAINT JOSEPH      27     270/ 18/ 23 1008.5

$$
&&




USA.gov is the U.S. government's official web portal to all federal, state and local government web resources and services.